Regional Weather Roundup
Issued by NWS Midland/Odessa, TX

Skip options and go directly to product.
Home | Oldest Version | Previous Version | Current Version | All | Graphics & Text | Save Text | Print | Product List | Glossary On

Skip product version selection by date and time.   
761
ASUS44 KMAF 301710
RWRMAF
MIDLAND AREA WEATHER ROUNDUP
NATIONAL WEATHER SERVICE MIDLAND TX
1200 PM CDT WED JUL 30 2014

...IN SOUTHWEST TEXAS AND SOUTHEAST NEW MEXICO...

CITY           SKY/WX    TMP DP  RH WIND       PRES   REMARKS
ALPINE         FAIR      89  50  25 SW16      30.21F
ANDREWS        FAIR      93  51  23 SW10G16   30.03F
ARTESIA        FAIR      88  63  42 W5        30.06S
BIG SPRING     FAIR      94  60  32 S18G24    30.04S
CARLSBAD       FAIR      93  59  31 MISG      30.02F
DRYDEN           N/A     93  60  33 SE5       30.02F
FORT STOCKTON  FAIR      96  49  20 SW9G18    30.03F
GUAD PASS      FAIR      85  51  31 SW21      30.22S
HOBBS          SUNNY     91  54  27 SW10      30.07S
MARFA          FAIR      84  52  32 S8        30.22F
MIDLAND AIRPK  FAIR      93  53  25 S10       30.03S
MIDLAND INTL   FAIR      93  54  26 S16       30.02F
ODESSA         FAIR      92  51  24 S13       30.04F
PECOS          FAIR      95  51  22 CALM      29.99F
PRESIDIO       FAIR      93  52  24 SW5       30.06S
SEMINOLE       FAIR      92  51  24 W12G17    30.05S
SNYDER         FAIR      84  66  54 S14G22    30.02F
WINK           FAIR      95  50  21 SW9       30.00S
$$
...OTHER STATIONS IN TEXAS...

CITY           SKY/WX    TMP DP  RH WIND       PRES   REMARKS
ABILENE        FAIR      85  65  51 S16G24    30.01F
AMARILLO       FAIR      76  67  73 W5        30.10F
AUSTIN         PTSUNNY   88  67  49 S9G24     30.04F
BROWNSVILLE    FAIR      93  71  48 S14G23    30.01S HX 100
CORPUS CHRISTI FAIR      93  70  46 S12G17    30.01F
DALLAS FTW     PTSUNNY   82  71  69 SE15G23   30.05F
DEL RIO        FAIR      90  67  46 SE13G20   29.98F
EL PASO        FAIR      89  58  34 VRB5      30.11S
HOUSTON INT    PTSUNNY   90  69  50 SE9G16    30.05F
LUBBOCK        FAIR      85  58  39 SW9       30.05F
SAN ANGELO     FAIR      93  54  26 S22G30    30.01F
SAN ANTONIO    PTSUNNY   87  69  54 S9        30.05F
WACO           PTSUNNY   86  70  58 S12       30.05F
WICHITA FALLS  NOT AVBL
$$
...OTHER LOCATIONS IN NEW MEXICO...

CITY           SKY/WX    TMP DP  RH WIND       PRES   REMARKS
ALAMAGORDO     FAIR      86  57  37 N3        30.14S
ALBUQUERQUE    FAIR      77  57  50 VRB3      30.23F
CANNON AFB     NOT AVBL
CLOVIS         NOT AVBL
HOLLOMAN AFB   FAIR      86  61  42 NW6       30.12F
ROSWELL        FAIR      84  69  60 N8        30.07S
RUIDOSO        FAIR      77  54  44 NW12G18   30.34R
SANTA FE       FAIR      72  59  63 SW6       30.28S
TRUTH OR CONSE FAIR      83  59  44 VRB3      30.18F
TUCUMCARI      FAIR      82  60  47 NE14G22   30.13S
$$

USA.gov is the U.S. government's official web portal to all federal, state and local government web resources and services.